User: anonymous   Login
Location: Domont
(49.0278°N, 2.3264°E)
Time: 18:22:28
(UTC+00:00)
Language:

Cosmos 1626 Rocket - Orbit

View from above orbital plane
View from above orbital plane
View from above satellite
View from above satellite

Ground track
Ground track

The orbit data is extracted from the following two-line orbital elements,

1 15495U 85009B   22021.14352810  .00000156  00000-0  15852-4 0  9994
2 15495  82.5224  54.5434 0019885 186.0670 174.0308 14.83952675998945
Epoch (UTC): 21 January 2022 03:26:40
Eccentricity: 0.0019885
inclination: 82.5224°
perigee height: 603 km
apogee height: 631 km
right ascension of ascending node: 54.5434°
argument of perigee: 186.0670°
revolutions per day: 14.83952675
mean anomaly at epoch: 174.0308°
orbit number at epoch: 99894

The dashed part of the orbit path shows where the satellite is in the earth's shadow,  

DLR